Regional Weather Roundup
Issued by NWS

Home | Current Version | Previous Version | Graphics & Text | Print | Product List | Glossary On
Versions: 1 2 3 4 5 6 7 8 9 10 11 12 13 14 15 16 17 18 19 20 21 22 23 24 25 26 27 28 29 30 31 32 33 34 35 36 37 38 39 40 41 42 43 44 45 46 47 48 49 50
000
ASUS43 KIND 301159
RWRIN

WEATHER ROUNDUP FOR INDIANA
NATIONAL WEATHER SERVICE INDIANAPOLIS IN
800 AM EDT THU OCT 30 2014

NOTE: "FAIR" INDICATES FEW OR NO CLOUDS BELOW 12,000 FEET WITH NO
SIGNIFICANT WEATHER AND/OR OBSTRUCTIONS TO VISIBILITY.

* - STATION DOES NOT REPORT WEATHER SUCH AS PRECIPITATION OR FOG.

+ - STATION NOT QUALITY CONTROLLED BY THE NATIONAL WEATHER SERVICE.
    USE DATA WITH CAUTION...ESPECIALLY DEWPOINT AND RELATIVE
    HUMIDITY OBSERVATIONS.

INZ001>003-010>013-019-020-301300-
NORTHWEST INDIANA

CITY           SKY/WX    TMP DP  RH WIND       PRES   REMARKS
GARY /AIRPORT/ PTCLDY    32  30  93 S7        30.15S WCI  26
VALPARAISO     NOT AVBL

$$

LMZ046-743>745-301300-
SOUTHERN LAKE MICHIGAN

STATION/POSITION TIME  TEMP WIND        PRES
                       AIR  DIR/SP/G
                 (UTC) (F)  (DEG/KT/KT) (MB)
MICHIGAN CITY    1100   43  180/  8/  9   N/A

$$

INZ004-005-014>016-021>024-301300-
NORTH CENTRAL INDIANA

CITY           SKY/WX    TMP DP  RH WIND       PRES   REMARKS
ELKHART        CLOUDY    43  37  81 SW6       30.14
GOSHEN         CLOUDY    43  37  79 SW7       30.13S
6HR MIN TEMP:  43; 6HR MAX TEMP:  44;

SOUTH BEND     CLOUDY    44  37  76 SW6       30.14S
6HR MIN TEMP:  44; 6HR MAX TEMP:  44;


$$

INZ006>009-017-018-025>027-301300-
NORTHEAST INDIANA

CITY           SKY/WX    TMP DP  RH WIND       PRES   REMARKS
ANGOLA *+      CLOUDY    41  39  93 CALM      30.12S
FORT WAYNE     CLOUDY    43  37  79 SW3       30.15S
6HR MIN TEMP:  43; 6HR MAX TEMP:  43;


$$

INZ028-029-035-036-043>045-051>053-301300-
WEST CENTRAL INDIANA

CITY           SKY/WX    TMP DP  RH WIND       PRES   REMARKS
GREENCASTLE +  CLEAR     32  32 100 CALM      30.17S
LAFAYETTE      CLEAR     30  30 100 CALM      30.17S
6HR MIN TEMP:  30; 6HR MAX TEMP:  38;

TERRE HAUTE    CLEAR     32  30  92 CALM      30.18S
6HR MIN TEMP:  32; 6HR MAX TEMP:  37;


$$

INZ030>032-037>040-046>048-054>057-064-065-301300-
CENTRAL INDIANA

CITY           SKY/WX    TMP DP  RH WIND       PRES   REMARKS
COLUMBUS       CLEAR     34  34 100 CALM      30.18R
INDIANAPOLIS   PTCLDY    35  30  82 W3        30.16S
6HR MIN TEMP:  34; 6HR MAX TEMP:  42;

-EAGLE CREEK   CLEAR     37  32  82 NW5       30.16S
6HR MIN TEMP:  37; 6HR MAX TEMP:  42;

KOKOMO *+      CLOUDY    43  34  70 W6        30.17R
MT COMFORT *+  CLEAR     32 N/A N/A CALM      30.16S
SHELBYVILLE    CLEAR     33  29  85 CALM      30.16S
6HR MIN TEMP:  33; 6HR MAX TEMP:  45;


$$

INZ033-034-041-042-049-050-058-059-301300-
EAST CENTRAL INDIANA

CITY           SKY/WX    TMP DP  RH WIND       PRES   REMARKS
MUNCIE         CLOUDY    43  36  76 CALM      30.15S
6HR MIN TEMP:  41; 6HR MAX TEMP:  43;


$$

INZ060-061-067>069-081>083-085>088-301300-
SOUTHWEST INDIANA

CITY           SKY/WX    TMP DP  RH WIND       PRES   REMARKS
EVANSVILLE     CLEAR     37  34  89 CALM      30.18S
6HR MIN TEMP:  37; 6HR MAX TEMP:  44;

HUNTINGBURG *+ CLEAR     34  30  86 CALM      30.18S
6HR MIN TEMP:  34; 6HR MAX TEMP:  39;


$$

INZ062-063-066-070>080-084-089>092-301300-
SOUTH CENTRAL AND SOUTHEAST INDIANA

CITY           SKY/WX    TMP DP  RH WIND       PRES   REMARKS
BLOOMINGTON    CLEAR     31  30  96 CALM      30.17S
6HR MIN TEMP:  31; 6HR MAX TEMP:  38;

SEYMOUR +      CLEAR     34  32  93 CALM      30.17

$$




USA.gov is the U.S. government's official web portal to all federal, state and local government web resources and services.